Pagrindinis puslapis
METAR-TAF:

METAR-TAF

Oro uostai :

Montes Claros, Minas Žeraisas, Brazilija

platuma: 16-43S, ilguma: 043-52W, Aukštis: 646 m

Dabartinis oras

Ataskaita buvo paskelbta 1 valandą ir 3 minutes, ne 19:00 UTC
Vėjas 5 kt iš Pietų/Pietryčių
Temperatūra 29°C
Drėgmė 58%
Slėgis 1016 hPa
Matomumas 10 km arba daugiau
nėra debesų žemiau 1500 m ir nėra kamuolinių lietaus debesų

METAR: SBMK 181900Z 16005KT CAVOK 29/20 Q1016

Laikas: 17:03 (20:03 UTC)


TAF: trūkstamas

Orai ataskaitas ir orų prognozės (METAR, TAF).

turimą stotys yra geltonos ir raudonos taškus žemėlapyje.

Perkelti pele per norėdami pamatyti stoties vardą.

Tada spustelėkite, norėdami matyti oro stebėjimo ir prognozės.

Norėdami pakeisti žemėlapį: spustelėkite ant žalios mygtukų su juodo kryžiaus žemyn,; žalią mygtuką su brūkšneliu, jei norite nutolinti; arba žalių rodyklių gretimoms žemėlapius.


METAR-TAF: